Probability
0 0 0 0 0 0 0 0 0 0 0 0 0 0 0 0 0 0 0 0 0 0 0 0 0 0 1 2 1 0 0 0 0 1 1 1 0 1 1 1 0 0 0 0
0 0 0 0 0 0 0 0 0 0 0 0 0 0 0 0 0 0 0 0 0 0 0 0 0 0 1 1 1 0 0 0 0 0 0 0 0 1 1 0 0 0 0 0
0 0 0 0 0 0 0 0 0 0 0 0 0 0 0 0 0 0 0 0 0 0 0 0 0 0 0 1 2 1 0 0 0 0 0 0 0 0 0 0 0 0 0 0
0 0 0 0 0 0 0 0 0 0 0 0 0 0 0 0 0 0 0 0 0 0 0 0 0 0 0 1 2 1 0 0 0 0 0 0 0 0 0 0 0 0 0 0
0 0 0 0 0 0 0 0 0 0 0 0 0 0 0 0 0 0 0 0 0 0 0 0 0 0 0 0 1 1 1 1 0 0 0 0 0 0 0 0 0 0 0 0
0 0 0 0 0 0 0 0 0 0 0 0 0 0 0 0 0 0 0 0 0 0 0 0 0 0 0 0 0 0 1 2 1 0 0 0 0 0 0 0 0 0 0 0
0 0 0 0 0 0 0 0 0 0 0 0 0 0 0 0 0 0 0 0 0 0 0 0 0 0 0 0 0 0 1 1 1 0 0 0 0 0 0 0 0 0 0 0
0 0 0 0 0 0 0 0 0 0 0 0 0 0 0 0 0 0 0 0 0 0 0 0 0 0 0 0 0 0 0 0 0 0 0 0 0 0 0 0 0 0 0 0
0 0 0 0 0 0 0 0 0 0 0 0 0 0 0 0 0 0 0 0 0 0 0 0 0 0 0 0 0 0 0 0 0 0 0 0 0 0 0 0 0 0 0 0
0 0 0 0 0 0 0 0 0 0 0 0 0 0 0 0 0 0 0 0 0 0 0 0 0 0 0 0 0 0 0 0 0 0 0 0 0 0 0 0 0 0 0 0
0 0 0 0 0 0 0 0 0 0 0 0 0 0 0 0 0 0 0 0 0 0 0 0 0 0 0 0 0 0 0 0 0 0 0 0 0 0 0 0 0 0 0 0
0 0 0 0 0 0 0 0 0 0 0 0 0 0 0 0 0 0 0 0 0 0 0 0 0 0 0 0 0 0 0 0 0 0 0 0 0 0 0 0 0 0 0 0
0 0 0 0 0 0 0 0 0 0 0 0 0 0 0 0 0 0 0 0 0 0 0 0 0 0 0 0 0 0 0 0 0 0 0 0 0 0 0 0 0 0 0 0
0 0 0 0 0 0 0 0 0 0 0 0 0 0 0 0 0 0 0 0 0 0 0 0 0 0 0 0 0 0 0 0 0 0 0 0 0 0 0 0 0 0 0 0
0 0 0 0 0 0 0 0 0 0 0 0 0 0 0 0 0 0 0 0 0 0 0 0 0 0 0 0 0 0 0 0 0 0 0 0 0 0 0 0 0 0 0 0
0 0 0 0 0 0 0 0 0 0 0 0 0 0 0 0 0 0 0 0 0 0 0 0 0 0 0 0 0 0 0 0 0 0 0 0 0 0 0 0 0 0 0 0
0 0 0 0 0 0 0 0 0 0 0 0 0 0 0 0 0 0 0 0 0 0 0 0 0 0 0 0 0 0 0 0 0 0 0 0 0 0 0 0 0 0 0 0
0 0 0 0 0 0 0 0 0 0 0 0 0 0 0 0 0 0 0 0 0 0 0 0 0 0 0 0 0 0 0 0 0 0 0 0 0 0 0 0 0 0 0 0
0 0 0 0 0 0 0 0 0 0 0 0 0 0 0 0 0 0 0 0 0 0 0 0 0 0 0 0 0 0 0 0 0 0 0 0 0 0 0 0 0 0 0 0
0 0 0 0 0 0 0 0 0 0 0 0 0 0 0 0 0 0 0 0 0 0 0 0 0 0 0 0 0 0 0 0 0 0 0 0 0 0 0 0 0 0 0 0
0 0 0 0 0 0 0 0 0 0 0 0 0 0 0 0 0 0 0 0 0 0 0 0 0 0 0 0 0 0 0 0 0 0 0 0 0 0 0 0 0 0 0 0
0 0 0 0 0 0 0 0 0 0 0 0 0 0 0 0 0 0 0 0 0 0 0 0 0 0 0 0 0 0 0 0 0 0 0 0 0 0 0 0 0 0 0 0
0 0 0 0 0 0 0 0 0 0 0 0 0 0 0 0 0 0 0 0 0 0 0 0 0 0 0 0 0 0 0 0 0 0 0 0 0 0 0 0 0 0 0 0
0 0 0 0 0 0 0 0 0 0 0 0 0 0 0 0 0 0 0 0 0 0 0 0 0 0 0 0 0 0 0 0 0 0 0 0 0 0 0 0 0 0 0 0
0 0 0 0 0 0 0 0 0 0 0 0 0 0 0 0 0 0 0 0 0 0 0 0 0 0 0 0 0 0 0 0 0 0 0 0 0 0 0 0 0 0 0 0
0 0 0 0 0 0 0 0 0 0 0 0 0 0 0 0 0 0 0 0 0 0 0 0 0 0 0 0 0 0 0 0 0 0 0 0 0 0 0 0 0 0 0 0
Wind_Speed
3 2 3 4 6 6 5 6 7 5 2 3 7 9 7 4 4 5 5 3 2 1 0 1 1 1 2 2 2 2 2 2 2 1 1 0 0 0 1 1 1 1 1 1
3 4 5 4 4 4 5 7 7 4 1 3 6 10 7 6 7 5 4 3 2 1 0 1 1 1 1 1 1 1 1 2 1 1 0 0 0 0 0 1 1 1 1 1
4 1 2 4 4 4 6 6 6 5 5 5 6 9 7 5 4 3 4 3 3 3 2 1 1 1 1 1 1 1 1 1 1 2 1 1 1 1 1 1 1 1 1 1
4 3 2 3 4 5 7 3 4 4 4 4 3 6 5 4 3 4 4 3 3 2 1 1 1 0 0 0 1 1 1 1 1 1 1 1 0 1 1 1 1 1 1 1
3 2 2 4 5 4 3 3 4 5 5 5 5 6 6 3 4 5 4 3 2 1 1 1 1 0 0 1 1 1 1 1 1 1 1 1 1 1 1 1 1 1 1 1
4 1 2 3 2 1 1 2 3 3 2 5 7 6 6 3 3 2 3 2 2 1 1 1 1 1 1 1 1 1 1 2 2 2 1 1 1 1 1 1 1 1 1 1
3 4 2 0 1 1 1 0 1 1 3 6 3 5 6 2 1 1 3 2 2 2 1 1 1 1 1 1 1 1 2 2 2 2 2 2 2 1 1 1 1 1 2 2
3 4 5 2 2 2 4 3 3 3 4 3 2 6 5 2 2 3 2 2 2 1 1 1 1 1 0 1 1 1 1 1 1 2 2 3 3 1 1 1 1 2 2 2
3 3 1 2 2 2 3 4 2 2 3 4 5 4 3 1 2 2 2 2 1 1 1 1 1 1 1 0 0 0 0 1 1 1 2 2 3 2 2 2 1 2 2 2
1 3 2 2 1 2 2 1 1 3 3 5 5 5 4 4 4 2 2 1 1 1 1 1 1 1 1 1 1 1 1 1 1 1 1 2 2 3 2 2 2 2 2 2
2 3 3 2 5 5 4 3 3 3 3 3 5 5 1 3 3 2 2 1 1 1 0 1 1 1 1 1 1 1 1 1 1 1 2 2 2 2 3 2 2 2 3 3
2 2 4 4 2 2 4 5 5 4 4 4 5 6 1 2 1 2 0 1 1 0 0 1 1 1 1 1 1 1 2 2 2 1 1 2 2 2 2 3 3 2 3 2
1 2 2 2 2 1 2 3 4 2 2 5 6 8 1 1 2 1 0 1 1 1 1 1 1 1 1 1 1 1 2 2 2 2 2 2 2 2 3 3 3 3 3 3
2 3 6 7 4 3 5 6 6 5 5 7 10 10 7 4 3 3 1 1 1 1 1 1 1 1 1 1 1 1 2 2 2 2 2 2 2 3 3 3 3 2 2 3
2 5 6 8 8 6 8 10 10 11 10 10 11 11 10 6 4 3 2 2 2 2 2 1 1 1 1 2 2 2 2 2 2 2 2 3 3 3 3 3 3 3 2 3
2 4 4 8 7 7 10 12 12 13 12 13 13 14 7 3 1 2 2 2 2 3 3 2 2 2 3 3 2 2 2 3 2 2 3 3 2 3 3 3 3 3 2 2
3 3 4 7 5 6 12 13 13 10 10 10 13 10 2 3 3 3 2 2 2 3 3 3 3 3 3 3 3 2 2 2 2 2 2 3 3 3 3 3 3 3 3 3
5 4 3 4 3 11 9 4 9 10 10 9 7 5 3 3 3 2 1 1 2 2 3 4 3 4 3 3 2 2 2 2 2 2 3 3 3 3 4 3 3 3 3 3
6 6 4 3 6 10 6 4 4 6 8 6 8 6 3 2 2 2 2 2 1 2 2 3 3 3 3 3 3 2 2 2 2 3 3 3 3 3 3 4 4 3 3 3
4 4 4 5 6 10 5 1 1 1 6 2 3 4 3 0 2 3 2 3 3 2 2 3 3 3 3 3 2 2 2 2 3 4 4 4 3 3 4 4 4 3 3 3
4 5 7 8 9 10 4 2 1 4 5 1 0 1 1 2 2 1 1 2 2 2 2 3 3 3 3 3 2 2 2 3 4 4 4 4 4 3 3 3 2 2 2 2
8 7 8 6 8 11 2 3 5 3 2 2 1 1 0 1 1 1 1 1 1 2 2 3 3 3 3 3 2 2 3 4 4 4 4 4 4 3 2 2 2 1 1 1
8 7 5 8 8 1 3 3 1 1 1 2 2 2 1 1 2 2 2 1 1 2 2 2 2 3 3 3 2 3 4 4 4 4 4 4 4 3 2 2 1 1 1 1
5 3 5 7 7 3 3 2 2 2 2 1 1 2 2 2 2 2 2 2 2 2 2 2 2 3 3 3 3 3 4 4 3 3 4 3 3 3 2 2 1 1 1 1
5 4 5 7 6 3 5 5 4 3 1 1 1 1 2 3 3 3 3 3 2 2 2 2 2 3 4 3 3 3 3 3 3 3 3 3 2 2 2 2 2 2 2 2
6 7 8 9 6 5 4 3 3 3 3 2 2 3 3 2 3 3 3 3 2 3 2 2 2 3 3 3 3 3 3 2 3 3 3 2 2 2 2 2 2 4 4 6
Wind_Direction
178 182 209 220 223 251 282 279 276 278 262 253 254 263 260 232 235 251 256 249 236 221 154 115 130 108 87 78 59 44 40 26 27 29 29 6 314 353 6 359 11 356 15 6
180 226 241 255 247 262 268 273 276 292 292 273 269 269 262 240 232 237 243 241 236 210 185 97 69 82 93 88 76 51 41 38 26 357 328 329 322 353 34 18 4 350 340 318
211 216 229 247 250 258 258 253 268 281 302 267 274 273 237 222 218 222 231 233 220 207 206 189 173 106 65 67 96 53 28 35 19 7 17 23 26 22 21 350 325 336 357 354
239 242 246 238 247 253 261 260 278 280 280 262 238 283 257 214 216 228 232 226 225 217 207 181 167 133 79 22 42 49 38 30 30 35 33 82 46 339 316 289 307 330 328 328
233 212 232 241 253 252 263 313 278 265 261 275 246 255 267 213 234 230 222 219 218 200 184 173 157 150 21 54 61 41 26 24 18 20 20 337 323 331 352 352 348 332 303 305
248 250 233 260 273 263 317 312 274 254 236 255 234 229 266 226 224 217 192 190 181 156 139 133 103 63 33 50 58 45 43 15 6 0 2 336 327 346 2 343 317 312 308 309
245 217 192 316 256 174 222 115 319 264 225 243 225 231 246 212 150 163 172 160 125 113 112 108 100 63 38 37 35 29 35 8 3 359 344 329 321 302 264 279 277 291 291 298
240 240 185 193 203 210 215 210 192 225 247 278 257 235 238 150 90 68 93 119 115 117 112 100 113 110 38 10 21 27 11 355 358 352 342 342 336 323 301 294 287 275 277 283
238 250 134 207 239 217 209 220 251 267 284 273 246 243 244 149 147 140 123 109 135 144 118 100 92 89 52 11 4 357 317 337 339 342 341 331 327 332 320 307 302 291 302 306
287 265 239 195 225 236 258 230 198 208 237 258 257 239 230 198 209 192 185 170 150 138 125 105 84 74 34 6 350 349 354 319 324 335 331 325 318 320 321 323 326 323 315 311
277 234 232 194 204 206 195 206 218 224 236 239 265 258 171 163 170 184 196 167 155 136 143 118 90 87 55 14 8 359 359 350 343 336 327 324 316 318 323 321 319 320 323 322
242 248 245 227 222 257 229 212 195 202 237 236 261 267 86 85 100 143 157 10 36 44 89 129 104 87 50 16 23 13 354 338 321 315 317 316 317 325 322 318 319 324 316 310
258 221 262 258 222 211 232 232 223 228 240 233 239 256 189 30 1 32 104 307 331 22 45 59 66 73 43 9 13 11 348 327 326 329 323 320 319 319 312 313 316 315 310 308
290 232 219 231 252 228 239 236 224 211 225 240 237 256 272 278 294 313 331 310 300 305 296 322 358 2 2 347 355 351 335 327 328 327 314 307 305 303 301 305 307 306 305 302
257 248 250 266 279 274 256 240 223 225 231 239 253 257 262 265 268 272 279 279 287 303 301 302 317 331 335 334 338 337 326 325 319 310 301 297 306 309 305 302 301 303 303 300
248 260 280 275 266 272 268 251 236 236 238 248 265 269 267 262 283 292 289 297 301 313 323 327 331 331 324 319 314 317 313 313 311 299 296 306 313 311 305 301 302 305 302 302
216 236 263 270 283 294 261 235 224 226 224 220 239 252 261 268 271 264 272 302 310 320 332 337 329 309 312 308 315 309 310 325 326 316 315 317 309 299 298 300 298 291 289 298
208 222 244 274 285 249 248 216 213 226 238 228 242 261 267 260 281 296 326 304 314 331 340 342 341 335 320 316 321 322 332 327 319 318 316 316 308 299 297 293 287 284 284 280
209 206 226 231 253 269 267 237 209 219 255 234 237 253 278 326 327 308 12 41 24 2 353 343 337 330 329 329 327 327 322 320 315 306 303 302 296 288 285 281 276 278 278 276
211 207 220 225 241 252 257 207 279 196 267 271 224 232 247 109 263 267 13 28 28 16 16 358 345 339 336 329 332 324 314 317 306 302 299 296 287 273 267 268 272 274 272 273
195 208 221 233 247 259 263 226 168 210 259 351 116 217 192 204 231 289 21 36 22 2 360 358 348 337 327 327 331 309 308 304 305 309 306 300 294 286 274 274 279 280 287 295
198 199 209 211 233 251 183 151 197 234 1 20 20 11 320 266 291 338 341 348 358 345 345 351 346 334 336 342 336 315 312 314 321 317 309 306 308 305 305 303 301 304 308 304
215 210 209 212 226 243 163 189 241 348 311 324 335 329 312 281 277 294 302 303 317 327 332 347 342 329 339 347 341 318 317 326 327 322 314 313 316 316 312 304 301 307 298 289
235 234 242 254 254 239 223 241 265 270 258 283 309 310 314 292 287 290 292 294 303 314 325 338 332 319 322 335 337 323 321 326 318 310 309 310 315 318 324 319 306 284 267 265
229 204 234 256 266 269 245 233 237 239 247 261 322 305 294 289 288 282 289 293 297 308 325 327 312 301 307 322 324 324 325 324 311 303 302 304 307 311 320 326 315 300 284 275
210 209 216 237 230 223 241 203 199 214 238 253 275 294 300 279 276 287 288 297 302 303 313 308 297 295 302 312 309 314 316 310 303 300 303 304 305 306 305 313 325 324 312 312